Showing default

YAOGAN 20A, 40109

Orbit data source: Space-Track

YAOGAN 20A, 40109 is a payload satellite owned by PLA GAD (CN) in LEO that was launched on Sat, 09 Aug 2014 UTC via a CHANG ZHENG 4C launch vehicle from the Jiuquan Satellite Launch Center, China (JSC). Payload-class satellites include a variety of spacecraft equipped with specific instruments for various scientific and technological missions. These include communications satellites like Starlink; space stations such as the ISS; scientific satellites like the Hubble; Earth observation satellites from companies like Planet Labs, Umbra, and HawkEye 360; GPS; miniature CubeSats for education and research; and military/defense satellites.

Loading next visibility...
Identifier
40109, 2014-047A
Orbit
LEO
Country
Flag of CNCN / PRC
Related business
Manufacturer
CAST
Mission
Operational Defense Sigint
Bus & Motor
JB-8, Unknown motor
Mass
~500 kg wet, ~500 kg dry
Launch date (UTC)
2014-08-09 (11 years ago)
Launch vehicle
CHANG ZHENG 4C
Launch site
Jiuquan Satellite Launch Center, China (JSC)
Object type
Payload
Rocket body
Debris
Shape & HBR
Box + 2 Pan, 0.5 m
Radar Cross Section
0.446 m², Large (>1 m²)

Expand to show TLE details & history
Last TLE update: 7 hours ago

TLE from 7 hours ago
0 YAOGAN 20A
1 40109U 14047A   26036.28479285 -.00000077  00000-0  15116-4 0  9995
2 40109  63.3824 359.1959 0378502  13.9556 347.1589 13.45425978564692
Epoch: 2026-02-05T06:50Z
TLE epoch observation values (Epoch: 2026-02-05T06:50:06.102Z)
Latitude
0.00002°
Longitude
121.23126°
Altitude
815.865 km
Speed
7.582 km/s
True Right ascension
23h 56m 47s
True Declination
0° 00' 00"
Sunlit
Object was in daylight at epoch
Visualization orbit readout
Latitude
Unknown
Longitude
Unknown
Altitude
Unknown
Speed
Unknown
Apparent Right ascension
Unknown
Apparent Declination
Unknown
Sunlit
N/A
Visualization observer readout
Local Sidereal Time
15:57:00
Azimuth
Unknown
Elevation
Unknown
Doppler factor
Unknown
Orbital elements
Apogee altitude
1,370.557 km
Perigee altitude
805.371 km
Semi-major axis
7,466.101 km
Eccentricity
0.03785
Inclination
63.3824°
RAAN
359.1959°
Arg. of periapsis
13.9556°
True anomaly
346.14847°
Mean anomaly
347.1589°
Eccentric anomaly
346.65847°
Mean motion
3.36436 °/min
Orbital period
107 mins
BSTAR
0.000015116
Loading maneuver chart data...
Computing Atmospheric mass density...
Loading historical data...
Loading historical data...
Loading historical data...
Loading historical data...
Loading historical data...
Loading historical data...
Loading historical data...

Documentation

Showing up to 5 results
|